Date String (YYYY-MM-DD hh:mm:ss) UTC,Instrument flags,Ambient pressure (hPa),Sample flow (lpm),Bypass flow (lpm),Sample temperature (°C),Ambient temperature (°C),ASC tube jacket temperature (°C),LED temperature (°C),Box temperature (°C),Sample RH (%),Span deviation,Mass concentration (μg/m³),Mass concentration (μg/m³),Mass concentration (μg/m³)
DateTimeUTC,F1_M11,P_M11,Q1_M11,Q2_M11,T1_M11,T2_M11,T3_M11,T4_M11,T5_M11,U1_M11,ZSPAN_M11,X0_M11,X2_M11,X1_M11
2023-01-08 19:00:00,,0825.4,5.00,0.00,22.3,21.0,00.0,31.2,24.0,09.1,-003.2,0010.42,0005.13,0004.76
2023-01-08 19:01:00,,0825.4,4.99,0.00,22.3,20.8,00.0,31.2,24.0,09.3,-003.4,0009.40,0004.87,0004.54
2023-01-08 19:02:00,,0825.4,5.00,0.00,22.2,20.8,00.0,31.2,23.9,09.6,-003.0,0009.13,0004.70,0004.38
2023-01-08 19:03:00,,0825.3,5.00,0.00,22.2,20.7,00.0,31.2,23.9,10.1,-002.5,0008.58,0004.54,0004.23
2023-01-08 19:04:00,,0825.4,5.01,0.00,22.2,20.7,00.0,31.2,23.9,10.1,-002.0,0008.01,0004.30,0004.04
2023-01-08 19:05:00,,0825.4,5.00,0.00,22.2,20.7,00.0,31.1,24.0,10.5,-001.4,0008.10,0004.36,0004.07
2023-01-08 19:06:00,,0825.4,5.01,0.00,22.2,20.6,00.0,31.1,23.9,10.9,-001.9,0008.65,0004.54,0004.26
2023-01-08 19:07:00,,0825.5,5.00,0.00,22.2,20.7,00.0,31.1,24.0,11.1,-002.6,0008.93,0004.64,0004.35
2023-01-08 19:08:00,,0825.6,4.99,0.00,22.2,20.8,00.0,31.1,24.0,11.6,-003.0,0009.94,0005.05,0004.71
2023-01-08 19:09:00,,0825.5,5.00,0.00,22.2,20.9,00.0,31.1,24.0,11.6,-003.1,0011.42,0005.50,0005.14
2023-01-08 19:10:00,,0825.5,5.00,0.00,22.2,20.9,00.0,31.1,24.0,12.5,-003.1,0012.57,0005.96,0005.56
2023-01-08 19:11:00,,0825.4,5.01,0.00,22.2,21.0,00.0,31.1,24.0,12.5,-003.0,0013.09,0006.30,0005.89
2023-01-08 19:12:00,,0825.4,5.01,0.00,22.3,21.1,00.0,31.1,24.1,11.1,-003.3,0013.58,0006.55,0006.11
2023-01-08 19:13:00,,0825.3,4.99,0.00,22.3,21.1,00.0,31.1,24.1,09.5,-003.3,0013.37,0006.63,0006.21
2023-01-08 19:14:00,,0825.3,4.99,0.00,22.3,21.2,00.0,31.1,24.1,09.0,-003.2,0013.07,0006.54,0006.15
2023-01-08 19:15:00,,0825.3,5.00,0.00,22.3,21.2,00.0,31.1,24.1,08.8,-003.1,0012.82,0006.37,0005.99
2023-01-08 19:16:00,,0825.3,5.01,0.00,22.3,21.3,00.0,31.1,24.2,09.5,-003.0,0012.62,0006.22,0005.86
2023-01-08 19:17:00,,0825.3,5.00,0.00,22.3,21.3,00.0,31.2,24.2,09.8,-002.8,0012.41,0006.09,0005.72
2023-01-08 19:18:00,,0825.2,4.99,0.00,22.4,21.3,00.0,31.2,24.2,09.8,-002.6,0012.52,0005.95,0005.60
2023-01-08 19:19:00,,0825.2,5.00,0.00,22.4,21.4,00.0,31.2,24.2,09.6,-002.4,0011.69,0005.69,0005.39
2023-01-08 19:20:00,,0825.1,5.00,0.00,22.4,21.4,00.0,31.2,24.2,08.8,-002.1,0010.45,0005.40,0005.12
2023-01-08 19:21:00,,0825.1,5.02,0.00,22.5,21.4,00.0,31.2,24.2,08.4,-001.8,0009.36,0005.03,0004.80
2023-01-08 19:22:00,,0825.1,5.01,0.00,22.5,21.5,00.0,31.2,24.3,07.9,-001.7,0008.78,0004.65,0004.46
2023-01-08 19:23:00,,0825.1,5.00,0.00,22.5,21.5,00.0,31.2,24.4,08.1,-000.6,0008.19,0004.34,0004.18
2023-01-08 19:24:00,,0825.1,5.00,0.00,22.5,21.5,00.0,31.3,24.4,08.0,-000.5,0007.95,0004.15,0003.99
2023-01-08 19:25:00,,0825.0,5.00,0.00,22.6,21.6,00.0,31.3,24.4,07.7,-000.8,0007.83,0004.08,0003.92
2023-01-08 19:26:00,,0825.2,4.99,0.00,22.6,21.6,00.0,31.3,24.5,07.5,-001.1,0007.72,0004.02,0003.86
2023-01-08 19:27:00,,0825.3,5.00,0.00,22.6,21.6,00.0,31.3,24.5,08.8,-001.8,0007.59,0003.97,0003.82
2023-01-08 19:28:00,,0825.3,5.00,0.00,22.6,21.6,00.0,31.3,24.5,10.0,-002.2,0007.07,0003.89,0003.77
2023-01-08 19:29:00,,0825.2,5.00,0.00,22.6,21.6,00.0,31.3,24.5,10.7,-002.2,0006.20,0003.89,0003.77
2023-01-08 19:30:00,,0825.1,5.00,0.00,22.7,21.7,00.0,31.4,24.5,09.2,-001.9,0006.33,0003.91,0003.75
2023-01-08 19:31:00,,0825.0,5.00,0.00,22.7,21.7,00.0,31.4,24.5,09.0,-001.9,0006.40,0003.92,0003.75
2023-01-08 19:32:00,,0825.2,5.00,0.00,22.7,21.7,00.0,31.4,24.5,09.2,-001.6,0006.61,0004.01,0003.84
2023-01-08 19:33:00,,0825.2,5.00,0.00,22.7,21.7,00.0,31.4,24.6,09.6,-001.5,0006.94,0004.12,0003.94
2023-01-08 19:34:00,,0825.3,5.00,0.00,22.7,21.7,00.0,31.4,24.6,10.3,-001.3,0007.39,0004.29,0004.08
2023-01-08 19:35:00,,0825.3,5.00,0.00,22.7,21.7,00.0,31.4,24.5,10.3,-001.3,0007.57,0004.45,0004.23
2023-01-08 19:36:00,,0825.2,5.00,0.00,22.8,21.7,00.0,31.4,24.5,09.9,-001.2,0007.89,0004.62,0004.39
2023-01-08 19:37:00,,0825.2,5.00,0.00,22.8,21.8,00.0,31.5,24.6,09.5,-001.1,0008.20,0004.79,0004.55
2023-01-08 19:38:00,,0825.2,5.01,0.00,22.8,21.8,00.0,31.5,24.6,09.2,-000.9,0008.34,0004.88,0004.64
2023-01-08 19:39:00,,0825.1,5.00,0.00,22.8,21.9,00.0,31.5,24.6,09.0,-000.7,0008.35,0004.88,0004.65
2023-01-08 19:40:00,,0825.0,4.99,0.00,22.9,21.9,00.0,31.5,24.7,08.9,-000.3,0008.21,0004.80,0004.59
2023-01-08 19:41:00,,0825.0,5.00,0.00,22.9,21.9,00.0,31.5,24.7,08.3,-000.3,0008.07,0004.73,0004.53
2023-01-08 19:42:00,,0825.0,4.99,0.00,22.9,21.9,00.0,31.6,24.8,09.4,-000.5,0008.05,0004.72,0004.52
2023-01-08 19:43:00,,0824.8,5.01,0.00,22.9,21.8,00.0,31.6,24.7,08.5,-000.8,0007.99,0004.67,0004.48
2023-01-08 19:44:00,,0824.7,5.01,0.00,22.9,21.7,00.0,31.6,24.8,08.6,-000.7,0008.03,0004.62,0004.44
2023-01-08 19:45:00,,0824.6,5.00,0.00,22.9,21.7,00.0,31.6,24.8,08.6,-000.9,0007.87,0004.52,0004.36
2023-01-08 19:46:00,,0824.7,5.00,0.00,22.9,21.7,00.0,31.6,24.8,08.4,-000.6,0007.75,0004.44,0004.27
2023-01-08 19:47:00,,0824.6,5.01,0.00,22.9,21.7,00.0,31.6,24.8,08.2,-000.5,0007.57,0004.35,0004.19
2023-01-08 19:48:00,,0824.8,5.00,0.00,22.9,21.8,00.0,31.7,24.8,08.3,-000.2,0007.40,0004.28,0004.13
2023-01-08 19:49:00,,0824.7,4.99,0.00,22.9,21.8,00.0,31.7,24.8,09.0,-000.1,0007.32,0004.25,0004.09
2023-01-08 19:50:00,,0824.6,5.00,0.00,22.9,21.8,00.0,31.7,24.8,08.9,0000.1,0007.37,0004.27,0004.09
2023-01-08 19:51:00,,0824.8,4.99,0.00,22.9,21.8,00.0,31.7,24.8,08.7,0000.1,0007.42,0004.28,0004.09
2023-01-08 19:52:00,,0824.8,5.00,0.00,22.9,21.8,00.0,31.7,24.8,08.3,0000.6,0007.49,0004.34,0004.15
2023-01-08 19:53:00,,0824.8,4.99,0.00,22.9,21.8,00.0,31.7,24.8,08.3,0000.4,0007.53,0004.39,0004.21
2023-01-08 19:54:00,,0824.9,5.00,0.00,22.9,21.9,00.0,31.7,24.8,08.3,0000.8,0007.75,0004.48,0004.28
2023-01-08 19:55:00,,0824.8,4.99,0.00,22.9,21.9,00.0,31.7,24.8,08.8,0000.8,0007.96,0004.57,0004.36
2023-01-08 19:56:00,,0824.8,5.00,0.00,23.0,21.9,00.0,31.7,24.7,08.7,0000.9,0008.02,0004.62,0004.41
2023-01-08 19:57:00,,0824.8,5.00,0.00,23.0,21.9,00.0,31.7,24.8,09.7,0000.9,0008.07,0004.67,0004.46
2023-01-08 19:58:00,,0824.8,5.00,0.00,23.0,22.0,00.0,31.7,24.8,10.2,0000.5,0008.09,0004.68,0004.48
2023-01-08 19:59:00,,0824.6,5.01,0.00,23.0,22.0,00.0,31.8,24.8,09.1,0000.0,0008.11,0004.70,0004.50
